Regional Weather Roundup
Issued by NWS

Home | Current Version | Previous Version | Graphics & Text | Print | Product List | Glossary On
Versions: 1 2 3 4 5 6 7 8 9 10 11 12 13 14 15 16 17 18 19 20 21 22 23 24 25 26 27 28 29 30 31 32 33 34 35 36 37 38 39 40 41 42 43 44 45 46 47 48 49 50
000
ASUS43 KMKX 222011
RWRWI

WISCONSIN REGIONAL WEATHER ROUNDUP
NATIONAL WEATHER SERVICE MILWAUKEE/SULLIVAN WI
200 PM CST MON JAN 22 2018

NOTE: "FAIR" INDICATES FEW OR NO CLOUDS BELOW 12,000 FEET WITH NO
SIGNIFICANT WEATHER AND/OR OBSTRUCTIONS TO VISIBILITY.

WIZ001-002-006>008-014>016-023>028-222100-
NORTHWEST WISCONSIN

CITY           SKY/WX    TMP DP  RH WIND       PRES   REMARKS
SUPERIOR ARPT  NOT AVBL
ASHLAND        SNOW      26  25  96 NE22G35   29.85F VSB 1/2 WCI  12
HAYWARD        SNOW      28  24  85 N20G32    29.74F VSB 1/2 WCI  15
SIREN          NOT AVBL
CUMBERLAND     NOT AVBL
RICE LAKE      NOT AVBL
CHETEK         NOT AVBL
LADYSMITH      NOT AVBL
EAU CLAIRE     SNOW      31  30  96 NE17G28   29.54F VSB 1/4 WCI  19
MENOMONIE      NOT AVBL
NEW RICHMOND   NOT AVBL
OSCEOLA        NOT AVBL
$$

WIZ003>005-009-010-017-018-222100-
NORTH CENTRAL WISCONSIN

CITY           SKY/WX    TMP DP  RH WIND       PRES   REMARKS
MANITOWISH WTR NOT AVBL
ARBOR VITAE    NOT AVBL
WOODRUFF       NOT AVBL
RHINELANDER    HVY SNOW  31  30  96 NE10G23   29.63F VSB 1/4 WCI  22
EAGLE RIVER    NOT AVBL
LAND O LAKES   NOT AVBL
PHILLIPS       NOT AVBL
TOMAHAWK       NOT AVBL
MEDFORD        NOT AVBL
MERRILL        NOT AVBL
$$

WIZ029-030-035-036-043>047-222100-
CENTRAL WISCONSIN

CITY           SKY/WX    TMP DP  RH WIND       PRES   REMARKS
WAUSAU         LGT SNOW  33  31  92 NE13G23   29.54F FOG     WCI  24
MOSINEE        LGT SNOW  34  32  93 NE17G29   29.55F WCI  23
MARSHFIELD     LGT SNOW  33  32  96 NE24G33   29.48F VSB 1   WCI  20
STEVENS POINT  NOT AVBL
WAUPACA        NOT AVBL
WAUTOMA        LGT RAIN  34  32  93 NE14G26   29.51F FOG     WCI  24
WISC RAPIDS    NOT AVBL
CAMP DOUGLAS   SNOW      34  34 100 SE6       29.55R VSB 1/4 WCI  29
$$

WIZ011>013-019>022-031-037>040-048>050-222100-
NORTHEAST WISCONSIN

CITY           SKY/WX    TMP DP  RH WIND       PRES   REMARKS
ANTIGO         NOT AVBL
SHAWANO        NOT AVBL
OCONTO         NOT AVBL
STURGEON BAY   MIX PCPN  32  31  96 NE15G26   29.59F FOG     WCI  22
GREEN BAY      LGT SNOW  33  31  92 NE24G33   29.56F FOG     WCI  20
MANITOWOC      LGT RAIN  36  35  96 NE12G17   29.52F FOG     WCI  28
APPLETON       LGT RAIN  32  32 100 NE17G30   29.51F FOG     WCI  21
CLINTONVILLE   NOT AVBL
OSHKOSH        MIX PCPN  35  34  96 NE17      29.48F FOG     WCI  25
$$

WIZ032>034-041-042-053>061-222100-
SOUTHWEST WISCONSIN

CITY           SKY/WX    TMP DP  RH WIND       PRES   REMARKS
LA CROSSE      LGT SNOW  34  34 100 N12       29.52F FOG     WCI  25
SPARTA         NOT AVBL
VIROQUA        NOT AVBL
BOSCOBEL       CLOUDY    37  32  82 NE6       29.46F WCI  32
PRAIRIE DU CHI NOT AVBL
PLATTEVILLE    NOT AVBL
$$

WIZ056-057-062-063-064-067-068-222100-
SOUTH CENTRAL WISCONSIN

CITY           SKY/WX    TMP DP  RH WIND       PRES   REMARKS
REEDSBURG      NOT AVBL
BARABOO/DELLS  NOT AVBL
LONE ROCK      CLOUDY    38  37  97 NE7       29.47R WCI  33
MINERAL POINT  NOT AVBL
MADISON        DRIZZLE   38  37  97 N8        29.47S WCI  32
MIDDLETON      NOT AVBL
WATERTOWN      NOT AVBL
MONROE         NOT AVBL
JANESVILLE     CLOUDY    45  45 100 CALM      29.43F FOG
$$

WIZ051-052-058>065-066-070>072-222100-
SOUTHEAST WISCONSIN

CITY           SKY/WX    TMP DP  RH WIND       PRES   REMARKS
MILWAUKEE      DRZL/FOG  40  40 100 CALM      29.44F VSB 1/2
WAUKESHA       FOG       37  36  93 NE5       29.45F VSB 3/4 WCI  34
MILWAUKEE/TIMM DRIZZLE   37  36  93 N5        29.46F FOG     WCI  34
RACINE         CLOUDY    44  44 100 S6        29.46S FOG
BURLINGTON     NOT AVBL
KENOSHA        CLOUDY    51  49  92 S12       29.43F FOG
FOND DU LAC    LGT SNOW  37  34  89 NE17      29.48F FOG     WCI  27
SHEBOYGAN      LGT SNOW  37  37 100 NE18      29.48F FOG     WCI  27
WEST BEND      NOT AVBL
JUNEAU         NOT AVBL
$$

LSZ147-162-222100-
LAKE SUPERIOR

STATION/POSITION TIME  TEMP    WIND        PRES    WAVE
                       AIR SEA DIR/SP/G            HT/PER
                 (UTC) (F)     (DEG/KT/KT) (MB)    (FT/S)
DEVILS ISLAND    2000   24      50/ 23/ 26 1013.6F
SAXON HARBOR     1949   29      40/ 26     1009.8F
$$

LMZ867-665-643>646-222100-
LAKE MICHIGAN

STATION/POSITION TIME  TEMP    WIND        PRES    WAVE
                       AIR SEA DIR/SP/G            HT/PER
                 (UTC) (F)     (DEG/KT/KT) (MB)    (FT/S)
NORTHPORT PIER   1931   31      60/ 11/ 39 1004.7F
KEWAUNEE LAKESHO 1948   35      40/ 16/ 22 1000.5F
SHEBOYGAN LAKESH 2000   36      30/ 18/ 19  998.4F
PORT WASHINGTON  1930   38     360/  6/ 10  999.3F
MILWAUKEE LAKESH 1950   38      10/  4/  4   N/A
KENOSHA   LAKESH 2000   40     170/  7/ 11  997.3
$$

TC  - TEMPERATURE IN CELSIUS
VSB - VISIBILITY IN STATUTE MILES
WCI - WIND CHILL INDEX
HX  - HEAT INDEX





USA.gov is the U.S. government's official web portal to all federal, state and local government web resources and services.